Location: Marcé
(47.5801°N, 0.3280°W)
Time: 07:23:10
(UTC+01:00)

Altair - Pass Details

Date: 17 December 2021
Orbit: 1501 x 1683 km, 47.2° (Epoch: 21 January)

Event Time Altitude Azimuth Distance (km) Brightness Sun altitude
Rises 17:02:36 0° 281° (W) 4,800 10.8 0.3°
Reaches altitude 10° 17:05:44 10° 280° (W) 3,789 10.3 -0.1°
Maximum altitude 17:15:19 80° 196° (SSW) 1,564 7.7 -1.5°
Drops below altitude 10° 17:24:33 10° 111° (ESE) 3,665 9.2 -2.8°
Sets 17:27:32 0° 110° (ESE) 4,636 9.7 -3.2°
